Tracking 19854 objects as of 23-Sep-2019
HD Live streaming from Space Station
objects crossing your sky now

COSMOS 2357

Track COSMOS 2357 now!
10-day predictions
COSMOS 2357 is classified as:


NORAD ID: 25368
Int'l Code: 1998-036F
Perigee: 1,302.8 km
Apogee: 1,867.5 km
Inclination: 82.6 °
Period: 117.7 minutes
Semi major axis: 7956 km
RCS: 1.0721 m2 (large)
Launch date: June 15, 1998
Source: Commonwealth of Independent States (former USSR) (CIS)
Launch site: PLESETSK MISSILE AND SPACE COMPLEX (PKMTR)

Satellites have a single simultaneous earth-space and space-earth channel.
aabbcc
Your satellite tracking list
Your tracking list is empty




NASA's NSSDC Master Catalog

Two Line Element Set (TLE):
1 25368U 98036F   19265.72582942  .00000038  00000-0  23763-3 0  9997
2 25368  82.5912 341.7536 0354886 282.4588  73.6994 12.23341623949886
Source of the keplerian elements: AFSPC